SL-16 DEB

Satellite information

Favourite Embed

Satellite Type and Status

DEBRISIN ORBIT

Key statistics

Satellite SL-16 DEB at a glance.

Uptime

11990

Days in orbit

Revolutions

≈ 14.2

Per day

Orbit

LEO

Low Earth Orbit

Inclination

71.0

Latest

Satellite identification and parameters

Extended collection of information and parameters for SL-16 DEB.

Object identification

Identified? True

Debris? True

Object name: SL-16 DEB

International designator: 1992-093LV

Object number (NORAD): 39867

Object ID (CCSDS): 39867

Country: COMMONWEALTH OF INDEPENDENT STATES (CIS)

Current information (Y/N): Y

RCS size: SMALL

Orbital parameters

Period: 101.382 minutes

Inclination: 70.9672 deg

SMA: 7202.219 km

Apoapsis: 924.503 km

Periapsis: 723.665 km

RAAN: 305.3249 deg

Eccentricy: 0.01394279

Argument of periapsis: 354.8461 deg

Mean anomaly: 5.1218 deg

Mean motion: 14.20375869 rev/day

Mean motion (dot): 0.00006824 rev/day2

B* drag term: 0.0029050782 1/REarth

Two-line elements (TLE)

Creation date: Oct. 15, 2025, 6:23 p.m.

Reference frame: TEME

Reference center: EARTH

Epoch: Oct. 15, 2025, 7:54 a.m. UTC

TLE line 0: 0 SL-16 DEB

TLE line 1: 1 39867U 92093LV 25288.32979316 .00006824 00000-0 29051-2 0 9990

TLE line 2: 2 39867 70.9672 305.3249 0139428 354.8461 5.1218 14.20375869562386

Live tracking on map

Real-time ground track for satellite SL-16 DEB.

In-orbit conjunctions

A list of the most updated potential collisions computed for object SL-16 DEB.

Target Orbit TCA Probability of collision Miss distance Type
COSMOS 1275 DEB LEO 2025-08-29 14:18:23 0.0001167923 294.0 (m) DEBRIS
COSMOS 2251 DEB LEO 2025-07-07 05:28:45 0.0001536543 42.0 (m) DEBRIS
IRIDIUM 38 LEO 2025-03-23 23:42:02 0.0001846849 261.0 (m) PAYLOAD

Associated space launch

Second generation ELING satellite

SL-16 DEB was lifted into orbit during the mission ‘Zenit-2 | Tselina-2 12’, on board a Zenit-2 space rocket.

The launch took place on Dec. 25, 1992, 5:56 a.m. from 45/1.

For more information about the launch, click the button.

Launch to space Zenit-2 | Tselina-2 12
Zenit-2 | Tselina-2 12

Agency: N/A

Status: Launch Successful

Launch date: Dec. 25, 1992, 5:56 a.m. UTC

Rocket: Zenit-2

Launch pad: 45/1

Location: Baikonur Cosmodrome, Republic of Kazakhstan

...

Latest news about this satellite

There are no fresh news available about this satellite. Check back as we update our databases every day.


Newsletter sign-up

Weekly statistics, charts and insights to help you stay on top of the space industry.